CQ0XPA-11 SANTAREM PT current weather conditions

sailwx.info

Wind from 067 at 2 knots gusting 5

Air temperature 18.3° C
Dewpoint 12.3° C

Last reported at 2018-Apr-25 19:09 UTC.
Time now 2018-Apr-25 20:10 UTC

Location: N 39°13' W 008°25'.
View on Google Maps.

See reports from other nearby stations

  
Tides and Currents Weather Stations Pressure Air Temp Water Temp Dewpoint Dewpoint Depression Visibility Wind Speed Wind Dir Waves Ship Positions
date/time (UTC)wind fromknots sea level pressurealtimeterstation pressurevisibilityair tempwater tempwave heightnotes
2018-Apr-25 19:09 067 2 gusting 5 18.3
2018-Apr-25 19:01 067 5 gusting 6 18.3
2018-Apr-25 18:59 090 2 gusting 6 18.9
2018-Apr-25 18:55 067 6 gusting 6 18.9
2018-Apr-25 18:49 112 2 gusting 5 19.4
2018-Apr-25 18:44 067 1 gusting 7 19.4
2018-Apr-25 18:38 067 2 gusting 5 19.4
2018-Apr-25 18:34 20.0
2018-Apr-25 18:26 270 2 gusting 6 20.0
2018-Apr-25 18:24 315 2 gusting 6 20.6
2018-Apr-25 18:18 033 4 gusting 7 20.6
2018-Apr-25 18:14 315 2 gusting 8 21.1
2018-Apr-25 18:08 067 2 gusting 7 21.1
2018-Apr-25 18:04 022 2 gusting 6 21.1
2018-Apr-25 18:00 067 5 gusting 6 21.7
2018-Apr-25 17:54 045 4 gusting 7 21.7
2018-Apr-25 17:50 033 4 gusting 6 21.7
2018-Apr-25 17:43 270 2 gusting 11 22.2
2018-Apr-25 17:39 22.2
2018-Apr-25 17:33 033 1 gusting 5 22.2
2018-Apr-25 17:29 270 3 gusting 5 22.8
2018-Apr-25 17:23 067 6 gusting 6 22.8
2018-Apr-25 17:17 270 2 gusting 6 23.3
2018-Apr-25 17:13 067 5 gusting 8 23.3
2018-Apr-25 17:09 033 3 gusting 6 23.3
2018-Apr-25 17:05 067 3 gusting 6 23.9
2018-Apr-25 16:59 045 0 gusting 6 23.9
2018-Apr-25 16:55 24.4
2018-Apr-25 16:48 067 3 gusting 5 24.4
2018-Apr-25 16:40 067 3 gusting 5 25.0
2018-Apr-25 16:28 270 0 gusting 8 25.6
2018-Apr-25 16:24 067 3 gusting 6 25.6
2018-Apr-25 16:18 303 2 gusting 6 26.1
2018-Apr-25 16:14 067 0 gusting 6 26.1
2018-Apr-25 16:08 315 4 gusting 6 26.1
2018-Apr-25 16:04 270 2 gusting 6 26.1
2018-Apr-25 16:00 067 2 gusting 5 26.1
2018-Apr-25 15:53 067 5 gusting 6 26.1
2018-Apr-25 15:49 26.1
2018-Apr-25 15:43 315 2 gusting 6 26.7
2018-Apr-25 15:39 067 1 gusting 6 26.7
2018-Apr-25 15:33 270 0 gusting 5 26.7
2018-Apr-25 15:29 033 2 gusting 5 27.2
2018-Apr-25 15:23 067 5 gusting 5 27.2
2018-Apr-25 15:19 26.7
2018-Apr-25 15:11 270 3 gusting 5 26.7
2018-Apr-25 15:09 270 0 gusting 5 26.7
2018-Apr-25 15:05 270 0 gusting 4 26.7
2018-Apr-25 14:59 270 1 gusting 8 26.7
2018-Apr-25 14:54 270 3 gusting 6 27.2
2018-Apr-25 14:48 067 1 gusting 5 26.7
2018-Apr-25 14:44 045 2 gusting 6 27.2
2018-Apr-25 14:38 067 2 gusting 6 26.7
2018-Apr-25 14:34 056 4 gusting 7 26.7
2018-Apr-25 14:28 26.7
2018-Apr-25 14:24 033 4 gusting 8 26.7
2018-Apr-25 14:18 045 2 gusting 3 26.7
2018-Apr-25 14:14 067 2 gusting 6 26.7
2018-Apr-25 14:08 067 3 gusting 4 26.7
2018-Apr-25 14:04 033 1 gusting 5 26.7
2018-Apr-25 14:00 067 1 gusting 5 26.7
2018-Apr-25 13:53 022 2 gusting 6 26.7
2018-Apr-25 13:49 270 3 gusting 5 26.7
2018-Apr-25 13:43 270 2 gusting 3 26.7
2018-Apr-25 13:39 067 2 gusting 5 26.1
2018-Apr-25 13:33 067 2 gusting 7 26.1
2018-Apr-25 13:29 056 7 gusting 7 26.1
2018-Apr-25 13:23 067 0 gusting 6 26.1
2018-Apr-25 13:19 270 1 gusting 5 26.1
2018-Apr-25 13:13 135 2 gusting 6 26.1
2018-Apr-25 13:09 067 2 gusting 5 25.6
2018-Apr-25 13:05 25.6
2018-Apr-25 12:59 045 0 gusting 6 25.6
2018-Apr-25 12:54 135 1 gusting 4 25.6
2018-Apr-25 12:48 033 0 gusting 4 25.0
2018-Apr-25 12:44 045 2 gusting 4 25.0
2018-Apr-25 12:38 25.0
2018-Apr-25 12:34 022 1 gusting 6 25.0
2018-Apr-25 12:28 033 3 gusting 6 25.0
2018-Apr-25 12:24 067 0 gusting 3 25.0
2018-Apr-25 12:18 067 3 gusting 3 24.4
2018-Apr-25 12:14 067 2 gusting 6 24.4
2018-Apr-25 12:10 24.4
2018-Apr-25 12:02 067 1 gusting 5 23.9
2018-Apr-25 11:59 067 2 gusting 5 23.9
2018-Apr-25 11:53 270 0 gusting 3 23.9
2018-Apr-25 11:49 270 0 gusting 5 23.3
2018-Apr-25 11:43 067 2 gusting 3 23.3
2018-Apr-25 11:39 033 1 gusting 3 23.3
2018-Apr-25 11:33 078 4 gusting 4 22.8
2018-Apr-25 11:29 067 2 gusting 4 22.8
2018-Apr-25 11:23 067 22.2
2018-Apr-25 11:19 135 3 gusting 6 21.7
2018-Apr-25 11:15 270 1 gusting 4 21.7
2018-Apr-25 11:09 067 2 gusting 4 21.1
2018-Apr-25 11:05 067 2 gusting 3 21.1
2018-Apr-25 10:58 067 2 gusting 5 21.1
2018-Apr-25 10:54 067 1 gusting 3 21.1
2018-Apr-25 10:48 067 1 gusting 2 21.1
2018-Apr-25 10:44 067 0 gusting 5 20.6
2018-Apr-25 10:38 067 1 gusting 5 20.6
2018-Apr-25 10:34 270 0 gusting 4 20.0
2018-Apr-25 10:28 180 0 gusting 6 20.0
2018-Apr-25 10:24 191 1 gusting 4 20.0
2018-Apr-25 10:18 20.0
2018-Apr-25 10:14 033 1 gusting 6 19.4
2018-Apr-25 10:10 315 1 gusting 4 19.4
2018-Apr-25 10:04 236 1 gusting 4 18.9
2018-Apr-25 09:59 18.9
2018-Apr-25 09:53 303 1 gusting 5 18.3
2018-Apr-25 09:49 045 2 gusting 6 18.3
2018-Apr-25 09:43 270 2 gusting 5 18.3
2018-Apr-25 09:39 17.8
2018-Apr-25 09:33 067 3 gusting 6 17.8
2018-Apr-25 09:29 067 1 gusting 5 17.2
2018-Apr-25 09:21 033 2 gusting 10 17.2
2018-Apr-25 09:19 067 1 gusting 10 17.2
2018-Apr-25 09:15 180 1 gusting 6 17.2
2018-Apr-25 09:09 270 0 gusting 5 16.7
2018-Apr-25 09:05 067 1 gusting 6 16.7
2018-Apr-25 08:58 033 6 gusting 6 16.7
2018-Apr-25 08:54 270 2 gusting 6 16.7
2018-Apr-25 08:44 315 0 gusting 6 16.1
2018-Apr-25 08:32 315 1 gusting 6 15.6
2018-Apr-25 08:28 15.6
2018-Apr-25 08:24 067 1 gusting 6 15.6
2018-Apr-25 08:18 270 1 gusting 3 15.0
2018-Apr-25 08:14 281 3 gusting 3 15.0
2018-Apr-25 08:10 180 1 gusting 3 15.0
2018-Apr-25 08:03 045 14.4
2018-Apr-25 07:57 090 2 gusting 4 14.4
2018-Apr-25 07:53 14.4
2018-Apr-25 07:49 045 2 gusting 5 13.9
2018-Apr-25 07:43 13.9
2018-Apr-25 07:39 022 3 gusting 6 13.3
2018-Apr-25 07:33 303 1 gusting 5 13.3
2018-Apr-25 07:29 348 0 gusting 4 13.3
2018-Apr-25 07:21 033 3 gusting 6 13.3
2018-Apr-25 07:19 292 0 gusting 6 13.3
2018-Apr-25 07:15 033 3 gusting 3 13.3
2018-Apr-25 07:09 067 0 gusting 3 12.8
2018-Apr-25 07:04 292 1 gusting 3 12.8
2018-Apr-25 06:58 045 2 gusting 5 12.8
2018-Apr-25 06:54 292 2 gusting 2 12.8
2018-Apr-25 06:48 067 1 gusting 3 12.8
2018-Apr-25 06:44 067 2 gusting 5 12.8
2018-Apr-25 06:36 022 5 gusting 5 12.8
2018-Apr-25 06:34 067 3 gusting 4 12.8
2018-Apr-25 06:28 270 0 gusting 6 12.8
2018-Apr-25 06:24 067 6 gusting 6 12.8
2018-Apr-25 06:20 315 4 gusting 5 12.2
2018-Apr-25 06:12 033 4 gusting 4 12.2
2018-Apr-25 06:09 270 2 gusting 3 12.2
2018-Apr-25 06:03 281 1 gusting 7 12.2
2018-Apr-25 05:59 270 5 gusting 5 12.2
2018-Apr-25 05:53 180 1 gusting 2 12.2
2018-Apr-25 05:49 315 0 gusting 4 12.2
2018-Apr-25 05:43 270 12.2
2018-Apr-25 05:39 067 0 gusting 3 12.2
2018-Apr-25 05:33 326 1 gusting 4 12.2
2018-Apr-25 05:29 292 2 gusting 4 12.2
2018-Apr-25 05:23 270 3 gusting 7 12.2
2018-Apr-25 05:19 12.2
2018-Apr-25 05:15 12.2
2018-Apr-25 05:08 270 1 gusting 5 12.8
2018-Apr-25 05:04 033 3 gusting 6 12.8
2018-Apr-25 04:58 045 1 gusting 4 12.8
2018-Apr-25 04:54 067 4 gusting 6 12.8
2018-Apr-25 04:46 12.8
2018-Apr-25 04:44 12.8
2018-Apr-25 04:38 270 4 gusting 4 12.8
2018-Apr-25 04:34 12.8
2018-Apr-25 04:28 12.8
2018-Apr-25 04:24 067 2 gusting 4 12.8
2018-Apr-25 04:20 315 3 gusting 6 12.8
2018-Apr-25 04:13 090 4 gusting 7 12.8
2018-Apr-25 04:09 270 2 gusting 6 12.8
2018-Apr-25 04:03 033 2 gusting 5 12.8
2018-Apr-25 03:59 270 1 gusting 5 12.8
2018-Apr-25 03:53 270 2 gusting 4 12.8
2018-Apr-25 03:49 12.8
2018-Apr-25 03:43 033 1 gusting 7 12.8
2018-Apr-25 03:39 12.8
2018-Apr-25 03:31 067 2 gusting 7 12.8
2018-Apr-25 03:29 315 3 gusting 7 12.8
2018-Apr-25 03:25 303 2 gusting 4 12.8
2018-Apr-25 03:19 303 2 gusting 3 12.8
2018-Apr-25 03:14 315 0 gusting 4 12.8
2018-Apr-25 03:08 067 3 gusting 7 12.8
2018-Apr-25 03:04 090 1 gusting 5 12.8
2018-Apr-25 02:58 067 4 gusting 5 12.8
2018-Apr-25 02:54 315 2 gusting 5 12.8
2018-Apr-25 02:48 13.3
2018-Apr-25 02:44 090 2 gusting 6 13.3
2018-Apr-25 02:38 315 0 gusting 4 13.3
2018-Apr-25 02:34 067 1 gusting 5 13.3
2018-Apr-25 02:30 067 1 gusting 6 13.3
2018-Apr-25 02:24 315 3 gusting 6 13.3
2018-Apr-25 02:20 067 5 gusting 6 13.3
2018-Apr-25 02:11 067 1 gusting 5 13.3
2018-Apr-25 02:09 13.3
2018-Apr-25 02:03 348 1 gusting 4 13.3
2018-Apr-25 01:59 067 1 gusting 8 13.3
2018-Apr-25 01:53 315 3 gusting 6 13.3
2018-Apr-25 01:49 067 4 gusting 5 13.3
2018-Apr-25 01:43 13.3
2018-Apr-25 01:39 180 2 gusting 3 13.3
2018-Apr-25 01:33 236 1 gusting 6 13.3
2018-Apr-25 01:29 067 6 gusting 7 13.3
2018-Apr-25 01:25 033 5 gusting 7 13.3
2018-Apr-25 01:19 067 0 gusting 4 13.3
2018-Apr-25 01:14 067 1 gusting 5 13.3
2018-Apr-25 01:08 270 3 gusting 7 13.3
2018-Apr-25 01:04 022 4 gusting 6 13.3
2018-Apr-25 00:48 056 3 gusting 6 13.3
2018-Apr-25 00:44 067 1 gusting 5 13.3
2018-Apr-25 00:36 270 5 gusting 5 13.3
2018-Apr-25 00:34 270 1 gusting 6 13.3
2018-Apr-25 00:28 270 2 gusting 5 13.3
2018-Apr-25 00:24 067 0 gusting 3 13.3
2018-Apr-25 00:20 033 3 gusting 6 13.3
2018-Apr-25 00:13 011 4 gusting 4 13.9
2018-Apr-25 00:09 056 2 gusting 7 13.9
2018-Apr-25 00:03 13.9
2018-Apr-24 23:59 067 3 gusting 4 13.9
2018-Apr-24 23:53 056 4 gusting 5 13.9
2018-Apr-24 23:49 067 13.9
2018-Apr-24 23:43 067 5 gusting 5 13.9
2018-Apr-24 23:39 033 0 gusting 4 13.9
2018-Apr-24 23:33 067 13.9
2018-Apr-24 23:29 180 13.9
2018-Apr-24 23:25 067 1 gusting 2 13.9
2018-Apr-24 23:18 270 4 gusting 4 13.9
2018-Apr-24 23:14 033 1 gusting 3 14.4
2018-Apr-24 23:08 225 3 gusting 3 14.4
2018-Apr-24 23:04 180 0 gusting 3 14.4
2018-Apr-24 22:58 157 1 gusting 5 14.4
2018-Apr-24 22:50 292 0 gusting 3 14.4
2018-Apr-24 22:48 180 3 gusting 3 14.4
2018-Apr-24 22:44 022 3 gusting 4 14.4
2018-Apr-24 22:38 270 2 gusting 3 14.4
2018-Apr-24 22:34 090 2 gusting 4 14.4
2018-Apr-24 22:30 157 1 gusting 5 15.0
2018-Apr-24 22:24 067 2 gusting 3 15.0
2018-Apr-24 22:19 067 1 gusting 3 15.0
2018-Apr-24 22:13 15.0
2018-Apr-24 22:09 022 3 gusting 5 15.0
2018-Apr-24 22:03 292 1 gusting 4 15.0
2018-Apr-24 21:59 180 1 gusting 5 15.0
2018-Apr-24 21:53 281 1 gusting 3 15.6
2018-Apr-24 21:49 15.6
2018-Apr-24 21:43 067 0 gusting 6 15.6
2018-Apr-24 21:39 180 1 gusting 4 15.6
2018-Apr-24 21:35 067 15.6
2018-Apr-24 21:29 16.1
2018-Apr-24 21:25 292 3 gusting 5 16.1
2018-Apr-24 21:18 281 0 gusting 3 16.1
2018-Apr-24 21:14 067 16.1
2018-Apr-24 21:08 033 0 gusting 4 16.1
2018-Apr-24 21:04 281 1 gusting 4 16.1
2018-Apr-24 20:58 180 16.1
2018-Apr-24 20:54 180 1 gusting 3 16.7
2018-Apr-24 20:46 135 16.7
2018-Apr-24 20:44 067 0 gusting 6 16.7
2018-Apr-24 20:38 090 1 gusting 4 16.7
2018-Apr-24 20:34 067 1 gusting 6 16.7
2018-Apr-24 20:30 281 0 gusting 5 16.7
2018-Apr-24 20:24 067 4 gusting 6 17.2
2018-Apr-24 20:19 067 0 gusting 4 17.2
2018-Apr-24 20:13 056 0 gusting 5 17.2
2018-Apr-24 20:09 067 0 gusting 4 17.2
2018-Apr-24 20:03 067 0 gusting 2 17.2
2018-Apr-24 19:59 033 1 gusting 2 17.8
2018-Apr-24 19:53 067 2 gusting 3 17.8
2018-Apr-24 19:49 067 1 gusting 3 17.8
2018-Apr-24 19:41 281 1 gusting 4 18.3
2018-Apr-24 19:39 270 0 gusting 3 18.3
2018-Apr-24 19:35 315 18.3
2018-Apr-24 19:29 067 1 gusting 3 18.3
2018-Apr-24 19:25 101 18.3
2018-Apr-24 19:18 067 2 gusting 3 18.3
2018-Apr-24 19:14 270 18.9
2018-Apr-24 19:08 045 1 gusting 5 18.9
2018-Apr-24 19:04 270 0 gusting 3 18.9
2018-Apr-24 18:58 067 0 gusting 4 18.9
2018-Apr-24 18:54 067 3 gusting 6 18.9
2018-Apr-24 18:48 056 5 gusting 5 18.9
2018-Apr-24 18:44 067 1 gusting 5 18.9
2018-Apr-24 18:38 067 5 gusting 5 18.9
2018-Apr-24 18:34 067 4 gusting 6 18.9
2018-Apr-24 18:30 19.4
2018-Apr-24 18:23 067 3 gusting 6 19.4
2018-Apr-24 18:19 067 2 gusting 5 19.4
2018-Apr-24 18:13 033 3 gusting 6 19.4
2018-Apr-24 18:09 067 5 gusting 5 20.0
2018-Apr-24 18:03 067 1 gusting 6 20.0
2018-Apr-24 17:59 067 0 gusting 5 20.0
2018-Apr-24 17:53 20.6
2018-Apr-24 17:49 20.6
2018-Apr-24 17:43 270 0 gusting 4 20.6
2018-Apr-24 17:39 067 0 gusting 2 21.1
2018-Apr-24 17:35 067 3 gusting 5 21.1
2018-Apr-24 17:29 067 2 gusting 8 21.1
2018-Apr-24 17:24 067 7 gusting 7 21.1
2018-Apr-24 17:18 067 2 gusting 6 21.7
2018-Apr-24 17:14 022 0 gusting 6 21.7
2018-Apr-24 17:08 067 5 gusting 5 22.2
2018-Apr-24 17:04 270 0 gusting 6 22.8
2018-Apr-24 16:58 270 1 gusting 3 23.3
2018-Apr-24 16:54 067 2 gusting 2 23.9
2018-Apr-24 16:48 067 1 gusting 5 24.4
2018-Apr-24 16:44 067 2 gusting 3 24.4
2018-Apr-24 16:40 067 3 gusting 6 25.0
2018-Apr-24 16:34 033 6 gusting 6 25.6
2018-Apr-24 16:30 067 1 gusting 6 26.1
2018-Apr-24 16:23 067 3 gusting 6 26.7
2018-Apr-24 16:19 033 4 gusting 6 27.2
2018-Apr-24 16:13 067 0 gusting 4 27.8
2018-Apr-24 16:09 067 3 gusting 8 28.3
2018-Apr-24 16:03 067 6 gusting 6 28.9
2018-Apr-24 15:59 067 1 gusting 5 28.9
2018-Apr-24 15:39 270 3 gusting 6 28.9
2018-Apr-24 15:35 270 2 gusting 5 28.9
2018-Apr-24 15:29 067 4 gusting 7 28.9
2018-Apr-24 15:24 067 6 gusting 6 28.9
2018-Apr-24 15:18 067 6 gusting 6 29.4
2018-Apr-24 15:14 033 7 gusting 8 29.4
2018-Apr-24 15:08 067 5 gusting 7 30.0
2018-Apr-24 15:04 067 5 gusting 6 30.0
2018-Apr-24 14:58 056 2 gusting 6 30.0
2018-Apr-24 14:52 067 0 gusting 5 30.0
2018-Apr-24 14:48 067 5 gusting 6 30.0
2018-Apr-24 14:44 067 3 gusting 5 30.0
2018-Apr-24 14:40 067 5 gusting 6 30.0
2018-Apr-24 14:34 033 5 gusting 6 30.0
2018-Apr-24 14:30 067 5 gusting 6 30.0
2018-Apr-24 14:23 067 6 gusting 6 30.6
2018-Apr-24 14:19 30.6
2018-Apr-24 14:13 270 0 gusting 6 30.0
2018-Apr-24 14:09 067 2 gusting 5 30.0
2018-Apr-24 14:03 067 2 gusting 3 30.0
2018-Apr-24 13:59 30.0
2018-Apr-24 13:53 270 4 gusting 6 30.0
2018-Apr-24 13:49 067 2 gusting 6 30.0
2018-Apr-24 13:43 067 3 gusting 6 30.0
2018-Apr-24 13:39 067 6 gusting 6 30.0
2018-Apr-24 13:35 033 3 gusting 7 30.0
2018-Apr-24 13:28 067 2 gusting 4 30.6
2018-Apr-24 13:24 067 1 gusting 6 30.0
2018-Apr-24 13:16 30.0
2018-Apr-24 13:14 056 2 gusting 3 30.0
2018-Apr-24 13:08 033 5 gusting 5 30.0
2018-Apr-24 13:04 067 1 gusting 6 30.0
2018-Apr-24 12:58 067 4 gusting 6 30.0
2018-Apr-24 12:54 270 0 gusting 3 30.0
2018-Apr-24 12:48 067 1 gusting 6 29.4
2018-Apr-24 12:44 270 2 gusting 5 29.4
2018-Apr-24 12:40 067 3 gusting 3 29.4
2018-Apr-24 12:34 067 2 gusting 3 29.4
2018-Apr-24 12:29 033 0 gusting 4 29.4
2018-Apr-24 12:23 011 2 gusting 4 28.9
2018-Apr-24 12:19 045 0 gusting 5 28.9
2018-Apr-24 12:13 067 2 gusting 4 28.9
2018-Apr-24 12:09 033 1 gusting 5 28.9
2018-Apr-24 12:03 022 3 gusting 5 28.9
2018-Apr-24 11:59 067 3 gusting 4 28.9
2018-Apr-24 11:53 28.3
2018-Apr-24 11:49 067 1 gusting 6 28.3
2018-Apr-24 11:45 270 0 gusting 4 28.3
2018-Apr-24 11:39 270 0 gusting 2 28.3
2018-Apr-24 11:35 270 28.3
2018-Apr-24 11:28 033 2 gusting 2 28.3
2018-Apr-24 11:24 067 0 gusting 4 27.8
2018-Apr-24 11:18 157 4 gusting 4 27.2
2018-Apr-24 11:14 067 2 gusting 5 27.2
2018-Apr-24 11:08 180 3 gusting 3 27.2
2018-Apr-24 11:04 270 1 gusting 3 27.2
2018-Apr-24 10:58 067 1 gusting 2 26.7
2018-Apr-24 10:54 303 26.7
2018-Apr-24 10:48 056 2 gusting 3 26.1
2018-Apr-24 10:44 022 0 gusting 4 26.1
2018-Apr-24 10:40 270 0 gusting 3 26.1
2018-Apr-24 10:34 135 1 gusting 5 25.6
2018-Apr-24 10:29 135 1 gusting 4 25.6
2018-Apr-24 10:23 157 3 gusting 7 25.0
2018-Apr-24 10:19 270 0 gusting 4 25.0
2018-Apr-24 10:13 180 0 gusting 3 25.0
2018-Apr-24 10:09 157 0 gusting 3 25.0
2018-Apr-24 10:03 180 0 gusting 2 24.4
2018-Apr-24 09:59 292 0 gusting 3 24.4
2018-Apr-24 09:53 23.9
2018-Apr-24 09:49 067 0 gusting 5 23.3
2018-Apr-24 09:45 067 3 gusting 4 23.3
2018-Apr-24 09:39 067 1 gusting 4 22.8
2018-Apr-24 09:35 303 1 gusting 2 22.8
2018-Apr-24 09:28 033 2 gusting 3 22.2
2018-Apr-24 09:24 045 1 gusting 3 22.2
2018-Apr-24 09:18 270 1 gusting 5 21.7
2018-Apr-24 09:14 270 1 gusting 2 21.7
2018-Apr-24 09:08 270 2 gusting 4 21.1
2018-Apr-24 09:04 270 0 gusting 2 21.1
2018-Apr-24 08:58 270 20.6
2018-Apr-24 08:54 20.6
2018-Apr-24 08:48 067 1 gusting 3 20.0
2018-Apr-24 08:44 045 2 gusting 3 20.0
2018-Apr-24 08:37 20.0
2018-Apr-24 08:33 270 1 gusting 2 19.4
2018-Apr-24 08:27 067 19.4
2018-Apr-24 08:23 19.4
2018-Apr-24 08:19 067 1 gusting 2 18.9
2018-Apr-24 08:13 270 0 gusting 2 18.9
2018-Apr-24 08:09 303 18.3
2018-Apr-24 08:03 270 18.3
2018-Apr-24 07:51 157 1 gusting 3 17.2
2018-Apr-24 07:49 292 17.2
2018-Apr-24 07:45 303 0 gusting 2 16.7
2018-Apr-24 07:38 292 16.1
2018-Apr-24 07:34 067 16.1
2018-Apr-24 07:28 045 15.6
2018-Apr-24 07:24 180 15.6
2018-Apr-24 07:18 135 0 gusting 0 15.6
2018-Apr-24 07:14 270 15.6
2018-Apr-24 07:08 270 15.6
2018-Apr-24 07:04 270 0 gusting 0 15.0
2018-Apr-24 06:58 135 15.0
2018-Apr-24 06:54 292 15.0
2018-Apr-24 06:50 067 15.0
2018-Apr-24 06:44 123 2 gusting 2 15.0
2018-Apr-24 06:39 135 14.4
2018-Apr-24 06:33 090 14.4
2018-Apr-24 06:29 270 14.4
2018-Apr-24 06:23 292 1 gusting 1 14.4
2018-Apr-24 06:19 326 14.4
2018-Apr-24 06:13 270 14.4
2018-Apr-24 06:09 270 1 gusting 1 14.4
2018-Apr-24 06:01 270 0 gusting 0 14.4
2018-Apr-24 05:59 067 14.4
2018-Apr-24 05:55 270 14.4
2018-Apr-24 05:49 270 0 gusting 1 14.4
2018-Apr-24 05:45 348 0 gusting 2 14.4
2018-Apr-24 05:38 067 14.4
2018-Apr-24 05:34 270 0 gusting 1 14.4
2018-Apr-24 05:28 270 14.4
2018-Apr-24 05:24 292 14.4
2018-Apr-24 05:18 292 15.0
2018-Apr-24 05:14 270 15.0
2018-Apr-24 05:08 270 15.0
2018-Apr-24 05:04 292 15.0
2018-Apr-24 04:58 135 15.6
2018-Apr-24 04:54 033 15.6
2018-Apr-24 04:46 067 15.6
2018-Apr-24 04:43 270 15.6
2018-Apr-24 04:39 15.6
2018-Apr-24 04:33 292 15.6
2018-Apr-24 04:29 180 1 gusting 3 16.1
2018-Apr-24 04:23 326 1 gusting 2 15.6
2018-Apr-24 04:19 281 2 gusting 4 15.6
2018-Apr-24 04:13 135 0 gusting 3 15.6
2018-Apr-24 04:09 180 1 gusting 3 15.6
2018-Apr-24 04:03 270 15.6
2018-Apr-24 03:59 292 15.6
2018-Apr-24 03:55 292 0 gusting 1 15.0
2018-Apr-24 03:49 180 15.0
2018-Apr-24 03:44 292 15.0
2018-Apr-24 03:38 067 1 gusting 1 15.0
2018-Apr-24 03:34 15.0
2018-Apr-24 03:28 292 0 gusting 1 15.0
2018-Apr-24 03:24 067 15.0
2018-Apr-24 03:18 270 15.0
2018-Apr-24 03:14 270 15.6
2018-Apr-24 03:08 067 15.6
2018-Apr-24 03:04 067 15.6
2018-Apr-24 03:00 292 15.6
2018-Apr-24 02:54 270 0 gusting 0 16.1
2018-Apr-24 02:50 067 16.1
2018-Apr-24 02:43 180 16.1
2018-Apr-24 02:39 292 16.1
2018-Apr-24 02:33 292 16.1
2018-Apr-24 02:29 270 16.1
2018-Apr-24 02:23 292 16.1
2018-Apr-24 02:19 292 0 gusting 0 16.1
2018-Apr-24 02:13 270 16.1
2018-Apr-24 02:09 270 16.1
2018-Apr-24 02:03 180 16.1
2018-Apr-24 01:59 270 16.1
2018-Apr-24 01:55 292 16.1
2018-Apr-24 01:49 112 16.1
2018-Apr-24 01:44 292 16.1
2018-Apr-24 01:38 292 16.7
2018-Apr-24 01:34 292 16.7
2018-Apr-24 01:28 292 1 gusting 1 16.7
2018-Apr-24 01:24 270 16.7
2018-Apr-24 01:18 270 0 gusting 1 16.7
2018-Apr-24 01:14 270 16.7
2018-Apr-24 01:08 270 17.2
2018-Apr-24 01:04 270 17.2
2018-Apr-24 01:00 180 1 gusting 1 17.2
2018-Apr-24 00:54 180 1 gusting 2 17.2
2018-Apr-24 00:50 292 17.2
2018-Apr-24 00:43 292 1 gusting 1 17.2
2018-Apr-24 00:39 270 17.2
2018-Apr-24 00:33 292 17.2
2018-Apr-24 00:29 292 2 gusting 2 17.2
2018-Apr-24 00:23 067 17.8
2018-Apr-24 00:19 180 0 gusting 0 17.8
2018-Apr-24 00:13 17.8
2018-Apr-24 00:09 045 0 gusting 1 17.8
2018-Apr-24 00:03 315 18.3
2018-Apr-23 23:59 270 18.3
2018-Apr-23 23:55 180 18.3
2018-Apr-23 23:48 067 0 gusting 2 18.3
2018-Apr-23 23:44 292 18.3
2018-Apr-23 23:38 270 1 gusting 3 18.3
2018-Apr-23 23:34 270 0 gusting 2 18.3
2018-Apr-23 23:28 067 0 gusting 4 18.3
2018-Apr-23 23:24 270 2 gusting 4 18.3
2018-Apr-23 23:18 270 1 gusting 2 18.3
2018-Apr-23 23:08 067 0 gusting 3 18.3
2018-Apr-23 22:58 281 2 gusting 3 18.3
2018-Apr-23 22:53 292 18.3
2018-Apr-23 22:49 067 2 gusting 5 18.3
2018-Apr-23 22:43 067 0 gusting 3 18.3
2018-Apr-23 22:39 292 0 gusting 2 18.3
2018-Apr-23 22:33 067 18.3
2018-Apr-23 22:29 292 18.3
2018-Apr-23 22:23 292 0 gusting 4 18.9
2018-Apr-23 22:19 292 1 gusting 2 18.9
2018-Apr-23 22:13 180 0 gusting 2 18.9
2018-Apr-23 22:09 292 1 gusting 2 18.9
2018-Apr-23 22:05 180 0 gusting 5 18.9
2018-Apr-23 21:59 270 18.9
2018-Apr-23 21:54 180 0 gusting 2 18.9
2018-Apr-23 21:48 270 0 gusting 2 18.9
2018-Apr-23 21:44 067 0 gusting 2 18.9
2018-Apr-23 21:38 292 0 gusting 3 18.9
2018-Apr-23 21:34 270 1 gusting 3 18.9
2018-Apr-23 21:28 067 0 gusting 3 18.9
2018-Apr-23 21:24 292 0 gusting 2 18.9
2018-Apr-23 21:18 292 18.9
2018-Apr-23 21:14 292 19.4
2018-Apr-23 21:10 067 0 gusting 2 19.4
2018-Apr-23 21:04 090 0 gusting 3 19.4
2018-Apr-23 21:00 067 1 gusting 3 19.4
2018-Apr-23 20:53 270 2 gusting 2 19.4
2018-Apr-23 20:49 281 0 gusting 2 19.4
2018-Apr-23 20:43 045 1 gusting 2 19.4
2018-Apr-23 20:39 292 0 gusting 4 19.4
2018-Apr-23 20:33 067 2 gusting 4 19.4
2018-Apr-23 20:29 270 19.4
2018-Apr-23 20:23 067 0 gusting 1 20.0
2018-Apr-23 20:19 292 20.0
2018-Apr-23 20:13 20.0
2018-Apr-23 20:09 270 0 gusting 2 20.0
2018-Apr-23 20:05 180 20.0